Liberty, SC

1:58 AM EDT on October 01, 2016 (GMT -0400)
Pickens County

Weather History for KLQK - March, 2014

Change the Weather History Date:

Monday, March 10, 2014

  Actual Average Record
Temperature  
Mean Temperature 55 °F -  
Max Temperature 75 °F 63 °F 85 °F (2016)
Min Temperature 35 °F 39 °F 35 °F (2014)
Degree Days  
Heating Degree Days 10    
Growing Degree Days 5 (Base 50)    
Moisture  
Dew Point 37 °F    
Average Humidity 49    
Maximum Humidity 87    
Minimum Humidity 27    
Precipitation  
Precipitation 0.00 in - - ()
Sea Level Pressure  
Sea Level Pressure 29.95 in    
Wind  
Wind Speed - (North)    
Max Wind Speed -    
Max Gust Speed -    
Visibility 10 miles    
Events      
Averages and records for this station are not official NWS values.
T = Trace of Precipitation, MM = Missing Value Source: NWS Daily Summary

Daily Weather History Graph

Daily Weather History Graph

Search for Another Location

Airport or City:

Trip Planner

Search our weather history database for the weather conditions in past years. The results will help you decide how hot, cold, wet, or windy it might be!

Date:

Astronomy

Mar. 10, 2014 Rise Set
Actual Time 7:48 AM EDT 7:34 PM EDT
Civil Twilight 7:23 AM EDT 7:59 PM EDT
Nautical Twilight 6:53 AM EDT 8:28 PM EDT
Astronomical Twilight 6:24 AM EDT 8:58 PM EDT
Moon 2:26 PM EDT (3/10) 3:49 AM EDT (3/10)
Length of Visible Light 12h 36m
Length of Day
11h 46m
Waxing Gibbous, 70% of the Moon is Illuminated
Mar 10
Waxing Gibbous
Mar 16
Full
Mar 23
Last Quarter
Mar 30
New
Apr 7
First Quarter

Hourly Weather History & Observations

Time (EDT) Temp. Dew Point Humidity Pressure Visibility Wind Dir Wind Speed Gust Speed Precip Events Conditions
12:15 AM 52.3 °F 30.4 °F 43% 30.05 in 10.0 mi North - - N/A   Clear
12:35 AM 51.1 °F 30.0 °F 44% 30.05 in 10.0 mi North - - N/A   Clear
12:55 AM 50.7 °F 29.1 °F 43% 30.06 in 10.0 mi North - - N/A   Clear
1:15 AM 50.5 °F 28.9 °F 43% 30.06 in 10.0 mi North - - N/A   Clear
1:35 AM 50.0 °F 28.8 °F 44% 30.06 in 10.0 mi North - - N/A   Clear
1:55 AM 47.7 °F 30.6 °F 52% 30.05 in 10.0 mi North - - N/A   Clear
2:15 AM 44.1 °F 31.5 °F 61% 30.04 in 10.0 mi North - - N/A   Clear
2:35 AM 46.0 °F 29.7 °F 53% 30.05 in 10.0 mi North - - N/A   Clear
2:55 AM 46.0 °F 29.8 °F 53% 30.04 in 10.0 mi North - - N/A   Clear
3:15 AM 46.0 °F 29.5 °F 52% 30.04 in 10.0 mi North - - N/A   Clear
3:35 AM 47.1 °F 29.7 °F 51% 30.03 in 10.0 mi North - - N/A   Clear
3:55 AM 42.1 °F 31.1 °F 65% 30.02 in 10.0 mi North - - N/A   Clear
4:15 AM 43.3 °F 30.2 °F 60% 30.01 in 10.0 mi North - - N/A   Clear
4:35 AM 42.1 °F 30.4 °F 63% 30.01 in 10.0 mi North - - N/A   Clear
4:55 AM 39.6 °F 30.7 °F 71% 30.01 in 10.0 mi North - - N/A   Clear
5:15 AM 40.3 °F 30.4 °F 68% 30.00 in 10.0 mi North - - N/A   Clear
5:35 AM 38.5 °F 30.7 °F 74% 30.00 in 10.0 mi North - - N/A   Clear
5:55 AM 41.9 °F 31.1 °F 66% 30.00 in 10.0 mi North - - N/A   Clear
6:15 AM 45.3 °F 31.1 °F 58% 29.99 in 10.0 mi North - - N/A   Clear
6:35 AM 39.6 °F 30.9 °F 71% 30.00 in 10.0 mi North - - N/A   Clear
6:55 AM 36.5 °F 31.5 °F 82% 30.00 in 10.0 mi North - - N/A   Clear
7:15 AM 38.5 °F 31.5 °F 76% 30.01 in 10.0 mi North - - N/A   Clear
7:35 AM 39.6 °F 31.8 °F 74% 30.01 in 10.0 mi North - - N/A   Clear
7:55 AM 37.2 °F 31.8 °F 81% 30.00 in 10.0 mi North - - N/A   Clear
8:15 AM 35.6 °F 31.5 °F 85% 30.00 in 10.0 mi North - - N/A   Clear
8:35 AM 35.8 °F 32.2 °F 87% 30.01 in 10.0 mi North - - N/A   Clear
8:55 AM 39.4 °F 34.0 °F 81% 30.01 in 10.0 mi North - - N/A   Clear
9:15 AM 41.5 °F 35.2 °F 78% 30.01 in 10.0 mi North - - N/A   Clear
9:35 AM 46.9 °F 36.0 °F 66% 30.01 in 10.0 mi North - - N/A   Clear
9:55 AM 50.7 °F 37.4 °F 60% 30.01 in 10.0 mi North - - N/A   Clear
10:15 AM 53.1 °F 37.9 °F 57% 30.01 in 10.0 mi North - - N/A   Clear
10:35 AM 56.7 °F 39.2 °F 52% 30.01 in 10.0 mi North - - N/A   Clear
10:55 AM 59.4 °F 40.5 °F 50% 30.01 in 10.0 mi North - - N/A   Clear
11:15 AM 61.9 °F 41.5 °F 47% 30.00 in 10.0 mi North - - N/A   Clear
11:35 AM 63.5 °F 42.3 °F 46% 30.00 in 10.0 mi North - - N/A   Clear
11:55 AM 64.2 °F 42.3 °F 45% 30.00 in 10.0 mi North - - N/A   Clear
12:15 PM 65.7 °F 42.3 °F 43% 29.99 in 10.0 mi North - - N/A   Clear
12:35 PM 66.7 °F 42.1 °F 41% 29.98 in 10.0 mi North - - N/A   Clear
12:55 PM 67.8 °F 42.6 °F 40% 29.98 in 10.0 mi North - - N/A   Clear
1:15 PM 68.7 °F 42.8 °F 39% 29.97 in 10.0 mi North - - N/A   Clear
1:35 PM 69.3 °F 42.6 °F 38% 29.95 in 10.0 mi North - - N/A   Clear
1:55 PM 70.0 °F 42.8 °F 37% 29.94 in 10.0 mi North - - N/A   Clear
2:15 PM 71.1 °F 42.6 °F 36% 29.93 in 10.0 mi North - - N/A   Clear
2:35 PM 71.8 °F 42.6 °F 35% 29.92 in 10.0 mi North - - N/A   Clear
2:55 PM 72.1 °F 41.7 °F 33% 29.90 in 10.0 mi North - - N/A   Clear
3:15 PM 72.7 °F 40.8 °F 32% 29.89 in 10.0 mi North - - N/A   Clear
3:35 PM 73.4 °F 39.4 °F 29% 29.87 in 10.0 mi North - - N/A   Clear
3:55 PM 74.5 °F 39.2 °F 28% 29.87 in 10.0 mi North - - N/A   Clear
4:15 PM 74.3 °F 39.7 °F 29% 29.87 in 10.0 mi North - - N/A   Clear
4:35 PM 74.7 °F 40.1 °F 29% 29.87 in 10.0 mi North - - N/A   Clear
4:55 PM 75.0 °F 39.7 °F 28% 29.86 in 10.0 mi North - - N/A   Clear
5:15 PM 75.2 °F 39.7 °F 28% 29.86 in 10.0 mi North - - N/A   Clear
5:35 PM 75.2 °F 39.4 °F 27% 29.85 in 10.0 mi North - - N/A   Clear
5:55 PM 75.2 °F 38.8 °F 27% 29.84 in 10.0 mi North - - N/A   Clear
6:15 PM 74.8 °F 38.3 °F 27% 29.84 in 10.0 mi North - - N/A   Clear
6:35 PM 74.1 °F 38.3 °F 27% 29.84 in 10.0 mi North - - N/A   Clear
6:55 PM 73.0 °F 38.1 °F 28% 29.85 in 10.0 mi North - - N/A   Clear
7:15 PM 71.8 °F 37.8 °F 29% 29.85 in 10.0 mi North - - N/A   Clear
7:35 PM 69.6 °F 37.9 °F 31% 29.85 in 10.0 mi North - - N/A   Clear
7:55 PM 67.6 °F 39.0 °F 35% 29.86 in 10.0 mi North - - N/A   Clear
8:15 PM 66.0 °F 40.3 °F 39% 29.86 in 10.0 mi North - - N/A   Clear
8:35 PM 64.9 °F 40.6 °F 41% 29.86 in 10.0 mi North - - N/A   Clear
8:55 PM 63.5 °F 41.5 °F 45% 29.87 in 10.0 mi North - - N/A   Clear
9:15 PM 62.2 °F 42.1 °F 48% 29.87 in 10.0 mi North - - N/A   Clear
9:35 PM 61.7 °F 42.3 °F 49% 29.87 in 10.0 mi North - - N/A   Clear
9:55 PM 61.0 °F 42.1 °F 50% 29.87 in 10.0 mi North - - N/A   Clear
10:15 PM 61.0 °F 41.7 °F 49% 29.87 in 10.0 mi North - - N/A   Clear
10:35 PM 60.3 °F 41.2 °F 49% 29.88 in 10.0 mi North - - N/A   Clear
10:55 PM 58.6 °F 41.0 °F 52% 29.88 in 10.0 mi North - - N/A   Clear
11:15 PM 58.1 °F 40.8 °F 53% 29.88 in 10.0 mi North - - N/A   Clear
11:35 PM 56.8 °F 41.0 °F 55% 29.89 in 10.0 mi North - - N/A   Clear
11:55 PM 56.5 °F 41.0 °F 56% 29.89 in 10.0 mi North - - N/A   Clear